Weather History for Lihue, HI

Change the Weather History Date:

Wednesday, December 28, 2011

  Actual Average Record
Temperature  
Mean Temperature 76 °F 72 °F  
Max Temperature 79 °F 78 °F 84 °F (2005)
Min Temperature 72 °F 66 °F 52 °F (1953)
Degree Days  
Heating Degree Days 0 0  
Month to date heating degree days 0 0  
Since 1 July heating degree days 0 0  
Cooling Degree Days 11 7  
Month to date cooling degree days 222 232  
Year to date cooling degree days 4110 3923  
Growing Degree Days 25 (Base 50)    
Moisture  
Dew Point 64 °F    
Average Humidity 70    
Maximum Humidity 79    
Minimum Humidity 60    
Precipitation  
Precipitation 0.03 in 0.16 in 0.90 in (1989)
Month to date precipitation 1.57 4.75  
Year to date precipitation 41.11 36.60  
Snow  
Snow 0.00 in - - ()
Month to date snowfall 0.0  
Since 1 July snowfall 0.0  
Snow Depth 0.00 in    
Sea Level Pressure  
Sea Level Pressure 30.19 in    
Wind  
Wind Speed 15 mph (NE)    
Max Wind Speed 21 mph    
Max Gust Speed 25 mph    
Visibility 10 miles    
Events      
T = Trace of Precipitation, MM = Missing Value Source: NWS Daily Summary

Daily Weather History Graph

Daily Weather History Graph

Search for Another Location

Airport:

Trip Planner

Search our weather history database for the weather conditions in past years. The results will help you decide how hot, cold, wet, or windy it might be!

Date:

Astronomy

Dec. 28, 2011 Rise Set
Actual Time 7:14 AM HST 6:03 PM HST
Civil Twilight 6:50 AM HST 6:27 PM HST
Nautical Twilight 6:22 AM HST 6:55 PM HST
Astronomical Twilight 5:55 AM HST 7:22 PM HST
Moon 10:16 AM HST 10:17 PM HST
Length of Visible Light 11h 36m
Length of Day
10h 48m
Waxing Crescent, 19% of the Moon is Illuminated
Dec 28
Waxing Crescent
Dec 31
First Quarter
Jan 8
Full
Jan 15
Last Quarter
Jan 22
New

Hourly Weather History & Observations

Time (HST) Temp. Dew Point Humidity Pressure Visibility Wind Dir Wind Speed Gust Speed Precip Events Conditions
12:53 AM 73.0 °F 64.0 °F 73% 30.18 in 10.0 mi ENE 16.1 mph - N/A   Overcast
1:53 AM 73.0 °F 64.0 °F 73% 30.17 in 10.0 mi ENE 16.1 mph - N/A   Overcast
2:53 AM 73.0 °F 63.0 °F 71% 30.16 in 10.0 mi ENE 13.8 mph - N/A   Mostly Cloudy
3:53 AM 73.0 °F 64.0 °F 73% 30.16 in 10.0 mi ENE 13.8 mph - N/A   Overcast
4:53 AM 73.0 °F 64.0 °F 73% 30.16 in 10.0 mi ENE 16.1 mph - 0.00 in   Overcast
5:53 AM 72.0 °F 64.9 °F 78% 30.17 in 10.0 mi NE 16.1 mph - 0.01 in   Mostly Cloudy
6:53 AM 73.0 °F 63.0 °F 71% 30.18 in 10.0 mi ENE 17.3 mph - N/A   Mostly Cloudy
7:53 AM 73.0 °F 63.0 °F 71% 30.20 in 10.0 mi ENE 17.3 mph - N/A   Scattered Clouds
8:53 AM 75.0 °F 62.1 °F 64% 30.22 in 10.0 mi ENE 10.4 mph - N/A   Clear
9:53 AM 77.0 °F 63.0 °F 62% 30.23 in 10.0 mi ENE 11.5 mph - N/A   Scattered Clouds
10:53 AM 78.1 °F 64.0 °F 62% 30.23 in 10.0 mi ENE 12.7 mph - N/A   Partly Cloudy
11:53 AM 78.1 °F 64.0 °F 62% 30.21 in 10.0 mi ENE 12.7 mph - N/A   Clear
12:53 PM 78.1 °F 64.0 °F 62% 30.18 in 10.0 mi ENE 12.7 mph - N/A   Clear
1:53 PM 78.1 °F 64.0 °F 62% 30.16 in 10.0 mi NE 15.0 mph - N/A   Mostly Cloudy
2:53 PM 78.1 °F 64.9 °F 64% 30.15 in 10.0 mi NE 15.0 mph - N/A   Scattered Clouds
3:53 PM 75.9 °F 64.9 °F 69% 30.16 in 10.0 mi NE 16.1 mph - N/A   Scattered Clouds
4:53 PM 75.0 °F 64.0 °F 69% 30.18 in 10.0 mi NE 12.7 mph - N/A   Partly Cloudy
5:53 PM 73.9 °F 64.9 °F 73% 30.18 in 10.0 mi NE 15.0 mph - 0.01 in   Mostly Cloudy
6:53 PM 73.0 °F 64.9 °F 76% 30.19 in 10.0 mi NE 16.1 mph - 0.01 in   Mostly Cloudy
7:53 PM 73.0 °F 64.9 °F 76% 30.20 in 10.0 mi NE 13.8 mph - N/A   Mostly Cloudy
8:53 PM 73.0 °F 64.9 °F 76% 30.21 in 10.0 mi NE 15.0 mph - 0.00 in   Partly Cloudy
9:53 PM 73.0 °F 66.0 °F 79% 30.20 in 10.0 mi NE 19.6 mph - N/A   Overcast
10:53 PM 73.0 °F 66.0 °F 79% 30.21 in 10.0 mi NE 13.8 mph - N/A   Mostly Cloudy
11:07 PM 73.4 °F 66.2 °F 78% 30.21 in 10.0 mi ENE 16.1 mph - N/A   Mostly Cloudy
11:18 PM 73.4 °F 66.2 °F 78% 30.20 in 10.0 mi NE 13.8 mph - N/A   Scattered Clouds
11:53 PM 73.0 °F 66.0 °F 79% 30.19 in 10.0 mi ENE 16.1 mph - N/A   Overcast